#datetime,building,power
2023-07-19T00:00:00,hld,2.42
2023-07-19T00:01:00,hld,2.42
2023-07-19T00:02:00,hld,2.41
2023-07-19T00:03:00,hld,3.16
2023-07-19T00:04:00,hld,2.43
2023-07-19T00:05:00,hld,2.46
2023-07-19T00:06:00,hld,2.46
2023-07-19T00:07:00,hld,2.53
2023-07-19T00:08:00,hld,2.46
2023-07-19T00:09:00,hld,2.43
2023-07-19T00:10:00,hld,2.43
2023-07-19T00:11:00,hld,2.42
2023-07-19T00:12:00,hld,2.41
2023-07-19T00:13:00,hld,2.42
2023-07-19T00:14:00,hld,2.46
2023-07-19T00:15:00,hld,2.41
2023-07-19T00:16:00,hld,2.43
2023-07-19T00:17:00,hld,2.42
2023-07-19T00:18:00,hld,2.42
2023-07-19T00:19:00,hld,2.41
2023-07-19T00:20:00,hld,2.48
2023-07-19T00:21:00,hld,3.56
2023-07-19T00:22:00,hld,2.58
2023-07-19T00:23:00,hld,2.57
2023-07-19T00:24:00,hld,2.57
2023-07-19T00:25:00,hld,2.57
2023-07-19T00:26:00,hld,2.54
2023-07-19T00:27:00,hld,2.55
2023-07-19T00:28:00,hld,2.55
2023-07-19T00:29:00,hld,2.79
2023-07-19T00:30:00,hld,2.56
2023-07-19T00:31:00,hld,2.60
2023-07-19T00:32:00,hld,2.55
2023-07-19T00:33:00,hld,2.55
2023-07-19T00:34:00,hld,2.54
2023-07-19T00:35:00,hld,2.53
2023-07-19T00:36:00,hld,2.56
2023-07-19T00:37:00,hld,2.55
2023-07-19T00:38:00,hld,2.56
2023-07-19T00:39:00,hld,2.59
2023-07-19T00:40:00,hld,2.56
2023-07-19T00:41:00,hld,2.59
2023-07-19T00:42:00,hld,2.47
2023-07-19T00:43:00,hld,2.49
2023-07-19T00:44:00,hld,2.45
2023-07-19T00:45:00,hld,2.41
2023-07-19T00:46:00,hld,2.41
2023-07-19T00:47:00,hld,2.43
2023-07-19T00:48:00,hld,2.43
2023-07-19T00:49:00,hld,2.44
2023-07-19T00:50:00,hld,2.44
2023-07-19T00:51:00,hld,2.43
2023-07-19T00:52:00,hld,2.42
2023-07-19T00:53:00,hld,2.57
2023-07-19T00:54:00,hld,2.55
2023-07-19T00:55:00,hld,2.55
2023-07-19T00:56:00,hld,2.55
2023-07-19T00:57:00,hld,2.56
2023-07-19T00:58:00,hld,2.54
2023-07-19T00:59:00,hld,2.52
2023-07-19T01:00:00,hld,3.26
2023-07-19T01:01:00,hld,2.54
2023-07-19T01:02:00,hld,2.54
2023-07-19T01:03:00,hld,2.44
2023-07-19T01:04:00,hld,2.44
2023-07-19T01:05:00,hld,2.41
2023-07-19T01:06:00,hld,2.40
2023-07-19T01:07:00,hld,2.46
2023-07-19T01:08:00,hld,2.40
2023-07-19T01:09:00,hld,2.40
2023-07-19T01:10:00,hld,2.41
2023-07-19T01:11:00,hld,2.41
2023-07-19T01:12:00,hld,2.41
2023-07-19T01:13:00,hld,2.39
2023-07-19T01:14:00,hld,2.40
2023-07-19T01:15:00,hld,2.42
2023-07-19T01:16:00,hld,2.40
2023-07-19T01:17:00,hld,2.42
2023-07-19T01:18:00,hld,2.41
2023-07-19T01:19:00,hld,2.41
2023-07-19T01:20:00,hld,2.42
2023-07-19T01:21:00,hld,2.42
2023-07-19T01:22:00,hld,2.42
2023-07-19T01:23:00,hld,2.40
2023-07-19T01:24:00,hld,2.41
2023-07-19T01:25:00,hld,2.41
2023-07-19T01:26:00,hld,2.41
2023-07-19T01:27:00,hld,2.40
2023-07-19T01:28:00,hld,2.40
2023-07-19T01:29:00,hld,2.80
2023-07-19T01:30:00,hld,2.41
2023-07-19T01:31:00,hld,2.42
2023-07-19T01:32:00,hld,2.44
2023-07-19T01:33:00,hld,2.41
2023-07-19T01:34:00,hld,2.43
2023-07-19T01:35:00,hld,2.44
2023-07-19T01:36:00,hld,2.68
2023-07-19T01:37:00,hld,2.56
2023-07-19T01:38:00,hld,2.57
2023-07-19T01:39:00,hld,2.55
2023-07-19T01:40:00,hld,2.55
2023-07-19T01:41:00,hld,2.54
2023-07-19T01:42:00,hld,2.56
2023-07-19T01:43:00,hld,2.56
2023-07-19T01:44:00,hld,2.55
2023-07-19T01:45:00,hld,2.57
2023-07-19T01:46:00,hld,2.53
2023-07-19T01:47:00,hld,2.54
2023-07-19T01:48:00,hld,2.55
2023-07-19T01:49:00,hld,2.54
2023-07-19T01:50:00,hld,2.54
2023-07-19T01:51:00,hld,2.55
2023-07-19T01:52:00,hld,2.55
2023-07-19T01:53:00,hld,2.53
2023-07-19T01:54:00,hld,2.53
2023-07-19T01:55:00,hld,2.54
2023-07-19T01:56:00,hld,2.42
2023-07-19T01:57:00,hld,2.46
2023-07-19T01:58:00,hld,2.44
2023-07-19T01:59:00,hld,2.48
2023-07-19T02:00:00,hld,2.47
2023-07-19T02:01:00,hld,2.44
2023-07-19T02:02:00,hld,2.41
2023-07-19T02:03:00,hld,2.42
2023-07-19T02:04:00,hld,2.42
2023-07-19T02:05:00,hld,2.43
2023-07-19T02:06:00,hld,2.57
2023-07-19T02:07:00,hld,2.58
2023-07-19T02:08:00,hld,2.55
2023-07-19T02:09:00,hld,2.55
2023-07-19T02:10:00,hld,2.55
2023-07-19T02:11:00,hld,2.55
2023-07-19T02:12:00,hld,2.51
2023-07-19T02:13:00,hld,2.55
2023-07-19T02:14:00,hld,2.54
2023-07-19T02:15:00,hld,2.54
2023-07-19T02:16:00,hld,2.53
2023-07-19T02:17:00,hld,6.52
2023-07-19T02:18:00,hld,6.55
2023-07-19T02:19:00,hld,6.55
2023-07-19T02:20:00,hld,6.56
2023-07-19T02:21:00,hld,2.42
2023-07-19T02:22:00,hld,2.40
2023-07-19T02:23:00,hld,2.41
2023-07-19T02:24:00,hld,2.42
2023-07-19T02:25:00,hld,2.41
2023-07-19T02:26:00,hld,2.42
2023-07-19T02:27:00,hld,2.43
2023-07-19T02:28:00,hld,2.43
2023-07-19T02:29:00,hld,2.43
2023-07-19T02:30:00,hld,2.41
2023-07-19T02:31:00,hld,2.41
2023-07-19T02:32:00,hld,3.90
2023-07-19T02:33:00,hld,2.40
2023-07-19T02:34:00,hld,2.43
2023-07-19T02:35:00,hld,2.45
2023-07-19T02:36:00,hld,2.42
2023-07-19T02:37:00,hld,2.42
2023-07-19T02:38:00,hld,2.42
2023-07-19T02:39:00,hld,2.43
2023-07-19T02:40:00,hld,2.43
2023-07-19T02:41:00,hld,2.43
2023-07-19T02:42:00,hld,2.42
2023-07-19T02:43:00,hld,2.42
2023-07-19T02:44:00,hld,2.46
2023-07-19T02:45:00,hld,2.43
2023-07-19T02:46:00,hld,2.42
2023-07-19T02:47:00,hld,2.42
2023-07-19T02:48:00,hld,2.42
2023-07-19T02:49:00,hld,2.43
2023-07-19T02:50:00,hld,2.41
2023-07-19T02:51:00,hld,2.58
2023-07-19T02:52:00,hld,2.56
2023-07-19T02:53:00,hld,2.58
2023-07-19T02:54:00,hld,2.57
2023-07-19T02:55:00,hld,2.54
2023-07-19T02:56:00,hld,2.55
2023-07-19T02:57:00,hld,2.56
2023-07-19T02:58:00,hld,2.55
2023-07-19T02:59:00,hld,2.55
2023-07-19T03:00:00,hld,2.54
2023-07-19T03:01:00,hld,2.62
2023-07-19T03:02:00,hld,2.65
2023-07-19T03:03:00,hld,2.65
2023-07-19T03:04:00,hld,2.63
2023-07-19T03:05:00,hld,2.81
2023-07-19T03:06:00,hld,2.56
2023-07-19T03:07:00,hld,2.63
2023-07-19T03:08:00,hld,2.58
2023-07-19T03:09:00,hld,2.58
2023-07-19T03:10:00,hld,2.49
2023-07-19T03:11:00,hld,2.49
2023-07-19T03:12:00,hld,2.45
2023-07-19T03:13:00,hld,2.47
2023-07-19T03:14:00,hld,2.90
2023-07-19T03:15:00,hld,2.47
2023-07-19T03:16:00,hld,2.43
2023-07-19T03:17:00,hld,2.42
2023-07-19T03:18:00,hld,2.41
2023-07-19T03:19:00,hld,2.43
2023-07-19T03:20:00,hld,2.45
2023-07-19T03:21:00,hld,2.54
2023-07-19T03:22:00,hld,3.71
2023-07-19T03:23:00,hld,2.53
2023-07-19T03:24:00,hld,2.53
2023-07-19T03:25:00,hld,4.01
2023-07-19T03:26:00,hld,2.56
2023-07-19T03:27:00,hld,2.55
2023-07-19T03:28:00,hld,2.55
2023-07-19T03:29:00,hld,2.56
2023-07-19T03:30:00,hld,2.60
2023-07-19T03:31:00,hld,2.45
2023-07-19T03:32:00,hld,2.49
2023-07-19T03:33:00,hld,2.44
2023-07-19T03:34:00,hld,2.46
2023-07-19T03:35:00,hld,2.49
2023-07-19T03:36:00,hld,2.45
2023-07-19T03:37:00,hld,2.46
2023-07-19T03:38:00,hld,2.48
2023-07-19T03:39:00,hld,2.43
2023-07-19T03:40:00,hld,2.50
2023-07-19T03:41:00,hld,2.46
2023-07-19T03:42:00,hld,2.47
2023-07-19T03:43:00,hld,2.47
2023-07-19T03:44:00,hld,11.25
2023-07-19T03:45:00,hld,10.97
2023-07-19T03:46:00,hld,11.47
2023-07-19T03:47:00,hld,10.62
2023-07-19T03:48:00,hld,10.52
2023-07-19T03:49:00,hld,2.46
2023-07-19T03:50:00,hld,3.22
2023-07-19T03:51:00,hld,2.47
2023-07-19T03:52:00,hld,2.46
2023-07-19T03:53:00,hld,2.45
2023-07-19T03:54:00,hld,2.49
2023-07-19T03:55:00,hld,2.49
2023-07-19T03:56:00,hld,2.45
2023-07-19T03:57:00,hld,2.44
2023-07-19T03:58:00,hld,2.42
2023-07-19T03:59:00,hld,2.45
2023-07-19T04:00:00,hld,2.46
2023-07-19T04:01:00,hld,2.53
2023-07-19T04:02:00,hld,2.44
2023-07-19T04:03:00,hld,2.42
2023-07-19T04:04:00,hld,2.44
2023-07-19T04:05:00,hld,2.56
2023-07-19T04:06:00,hld,3.97
2023-07-19T04:07:00,hld,4.03
2023-07-19T04:08:00,hld,5.88
2023-07-19T04:09:00,hld,8.10
2023-07-19T04:10:00,hld,8.11
2023-07-19T04:11:00,hld,4.55
2023-07-19T04:12:00,hld,5.78
2023-07-19T04:13:00,hld,13.50
2023-07-19T04:14:00,hld,4.70
2023-07-19T04:15:00,hld,6.25
2023-07-19T04:16:00,hld,7.21
2023-07-19T04:17:00,hld,7.24
2023-07-19T04:18:00,hld,3.58
2023-07-19T04:19:00,hld,3.38
2023-07-19T04:20:00,hld,3.42
2023-07-19T04:21:00,hld,3.36
2023-07-19T04:22:00,hld,3.34
2023-07-19T04:23:00,hld,3.35
2023-07-19T04:24:00,hld,3.24
2023-07-19T04:25:00,hld,3.01
2023-07-19T04:26:00,hld,3.15
2023-07-19T04:27:00,hld,3.17
2023-07-19T04:28:00,hld,3.15
2023-07-19T04:29:00,hld,3.14
2023-07-19T04:30:00,hld,3.17
2023-07-19T04:31:00,hld,13.22
2023-07-19T04:32:00,hld,3.20
2023-07-19T04:33:00,hld,3.18
2023-07-19T04:34:00,hld,7.32
2023-07-19T04:35:00,hld,7.50
2023-07-19T04:36:00,hld,7.39
2023-07-19T04:37:00,hld,7.28
2023-07-19T04:38:00,hld,3.19
2023-07-19T04:39:00,hld,3.18
2023-07-19T04:40:00,hld,3.19
2023-07-19T04:41:00,hld,3.14
2023-07-19T04:42:00,hld,3.17
2023-07-19T04:43:00,hld,3.17
2023-07-19T04:44:00,hld,3.87
2023-07-19T04:45:00,hld,3.15
2023-07-19T04:46:00,hld,3.09
2023-07-19T04:47:00,hld,3.11
2023-07-19T04:48:00,hld,2.97
2023-07-19T04:49:00,hld,2.96
2023-07-19T04:50:00,hld,3.05
2023-07-19T04:51:00,hld,3.06
2023-07-19T04:52:00,hld,3.04
2023-07-19T04:53:00,hld,3.09
2023-07-19T04:54:00,hld,3.08
2023-07-19T04:55:00,hld,3.09
2023-07-19T04:56:00,hld,3.06
2023-07-19T04:57:00,hld,3.06
2023-07-19T04:58:00,hld,3.08
2023-07-19T04:59:00,hld,4.24
2023-07-19T05:00:00,hld,3.03
2023-07-19T05:01:00,hld,4.10
2023-07-19T05:02:00,hld,7.46
2023-07-19T05:03:00,hld,6.68
2023-07-19T05:04:00,hld,6.69
2023-07-19T05:05:00,hld,2.98
2023-07-19T05:06:00,hld,2.96
2023-07-19T05:07:00,hld,2.99
2023-07-19T05:08:00,hld,2.90
2023-07-19T05:09:00,hld,2.92
2023-07-19T05:10:00,hld,2.94
2023-07-19T05:11:00,hld,2.79
2023-07-19T05:12:00,hld,2.79
2023-07-19T05:13:00,hld,2.75
2023-07-19T05:14:00,hld,2.76
2023-07-19T05:15:00,hld,2.77
2023-07-19T05:16:00,hld,2.75
2023-07-19T05:17:00,hld,2.76
2023-07-19T05:18:00,hld,2.77
2023-07-19T05:19:00,hld,2.90
2023-07-19T05:20:00,hld,2.70
2023-07-19T05:21:00,hld,2.55
2023-07-19T05:22:00,hld,2.73
2023-07-19T05:23:00,hld,2.56
2023-07-19T05:24:00,hld,2.53
2023-07-19T05:25:00,hld,2.57
2023-07-19T05:26:00,hld,2.57
2023-07-19T05:27:00,hld,2.56
2023-07-19T05:28:00,hld,2.32
2023-07-19T05:29:00,hld,2.34
2023-07-19T05:30:00,hld,2.36
2023-07-19T05:31:00,hld,2.34
2023-07-19T05:32:00,hld,2.30
2023-07-19T05:33:00,hld,2.34
2023-07-19T05:34:00,hld,2.31
2023-07-19T05:35:00,hld,2.33
2023-07-19T05:36:00,hld,2.31
2023-07-19T05:37:00,hld,2.28
2023-07-19T05:38:00,hld,2.31
2023-07-19T05:39:00,hld,2.23
2023-07-19T05:40:00,hld,2.20
2023-07-19T05:41:00,hld,2.20
2023-07-19T05:42:00,hld,2.21
2023-07-19T05:43:00,hld,2.20
2023-07-19T05:44:00,hld,2.18
2023-07-19T05:45:00,hld,2.22
2023-07-19T05:46:00,hld,2.19
2023-07-19T05:47:00,hld,2.22
2023-07-19T05:48:00,hld,2.20
2023-07-19T05:49:00,hld,2.33
2023-07-19T05:50:00,hld,2.33
2023-07-19T05:51:00,hld,2.29
2023-07-19T05:52:00,hld,3.78
2023-07-19T05:53:00,hld,2.30
2023-07-19T05:54:00,hld,2.51
2023-07-19T05:55:00,hld,2.33
2023-07-19T05:56:00,hld,2.32
2023-07-19T05:57:00,hld,2.31
2023-07-19T05:58:00,hld,2.30
2023-07-19T05:59:00,hld,2.34
2023-07-19T06:00:00,hld,2.23
2023-07-19T06:01:00,hld,2.19
2023-07-19T06:02:00,hld,2.19
2023-07-19T06:03:00,hld,2.20
2023-07-19T06:04:00,hld,2.17
2023-07-19T06:05:00,hld,2.21
2023-07-19T06:06:00,hld,2.19
2023-07-19T06:07:00,hld,2.19
2023-07-19T06:08:00,hld,2.19
2023-07-19T06:09:00,hld,2.18
2023-07-19T06:10:00,hld,2.20
2023-07-19T06:11:00,hld,2.18
2023-07-19T06:12:00,hld,2.17
2023-07-19T06:13:00,hld,2.17
2023-07-19T06:14:00,hld,2.18
2023-07-19T06:15:00,hld,2.20
2023-07-19T06:16:00,hld,2.18
2023-07-19T06:17:00,hld,2.19
2023-07-19T06:18:00,hld,2.24
2023-07-19T06:19:00,hld,2.17
2023-07-19T06:20:00,hld,2.23
2023-07-19T06:21:00,hld,2.17
2023-07-19T06:22:00,hld,2.20
2023-07-19T06:23:00,hld,3.28
2023-07-19T06:24:00,hld,2.17
2023-07-19T06:25:00,hld,2.20
2023-07-19T06:26:00,hld,2.18
2023-07-19T06:27:00,hld,2.17
2023-07-19T06:28:00,hld,2.16
2023-07-19T06:29:00,hld,2.17
2023-07-19T06:30:00,hld,2.23
2023-07-19T06:31:00,hld,2.19
2023-07-19T06:32:00,hld,2.18
2023-07-19T06:33:00,hld,2.18
2023-07-19T06:34:00,hld,2.19
2023-07-19T06:35:00,hld,2.21
2023-07-19T06:36:00,hld,2.32
2023-07-19T06:37:00,hld,2.33
2023-07-19T06:38:00,hld,2.31
2023-07-19T06:39:00,hld,2.32
2023-07-19T06:40:00,hld,2.32
2023-07-19T06:41:00,hld,2.90
2023-07-19T06:42:00,hld,3.80
2023-07-19T06:43:00,hld,2.32
2023-07-19T06:44:00,hld,2.33
2023-07-19T06:45:00,hld,2.31
2023-07-19T06:46:00,hld,2.32
2023-07-19T06:47:00,hld,2.32
2023-07-19T06:48:00,hld,2.37
2023-07-19T06:49:00,hld,2.38
2023-07-19T06:50:00,hld,2.41
2023-07-19T06:51:00,hld,2.40
2023-07-19T06:52:00,hld,2.37
2023-07-19T06:53:00,hld,2.32
2023-07-19T06:54:00,hld,2.33
2023-07-19T06:55:00,hld,2.19
2023-07-19T06:56:00,hld,2.19
2023-07-19T06:57:00,hld,2.21
2023-07-19T06:58:00,hld,2.22
2023-07-19T06:59:00,hld,2.19
2023-07-19T07:00:00,hld,2.20
2023-07-19T07:01:00,hld,2.18
2023-07-19T07:02:00,hld,2.20
2023-07-19T07:03:00,hld,2.24
2023-07-19T07:04:00,hld,2.19
2023-07-19T07:05:00,hld,2.35
2023-07-19T07:06:00,hld,2.35
2023-07-19T07:07:00,hld,2.35
2023-07-19T07:08:00,hld,2.33
2023-07-19T07:09:00,hld,2.31
2023-07-19T07:10:00,hld,2.34
2023-07-19T07:11:00,hld,2.36
2023-07-19T07:12:00,hld,2.32
2023-07-19T07:13:00,hld,2.32
2023-07-19T07:14:00,hld,2.41
2023-07-19T07:15:00,hld,4.45
2023-07-19T07:16:00,hld,4.35
2023-07-19T07:17:00,hld,4.33
2023-07-19T07:18:00,hld,4.34
2023-07-19T07:19:00,hld,4.35
2023-07-19T07:20:00,hld,4.36
2023-07-19T07:21:00,hld,4.34
2023-07-19T07:22:00,hld,4.25
2023-07-19T07:23:00,hld,4.28
2023-07-19T07:24:00,hld,4.52
2023-07-19T07:25:00,hld,4.62
2023-07-19T07:26:00,hld,4.53
2023-07-19T07:27:00,hld,4.58
2023-07-19T07:28:00,hld,4.55
2023-07-19T07:29:00,hld,4.56
2023-07-19T07:30:00,hld,4.64
2023-07-19T07:31:00,hld,4.57
2023-07-19T07:32:00,hld,6.04
2023-07-19T07:33:00,hld,4.56
2023-07-19T07:34:00,hld,13.23
2023-07-19T07:35:00,hld,14.21
2023-07-19T07:36:00,hld,14.08
2023-07-19T07:37:00,hld,14.94
2023-07-19T07:38:00,hld,16.11
2023-07-19T07:39:00,hld,9.50
2023-07-19T07:40:00,hld,9.65
2023-07-19T07:41:00,hld,9.64
2023-07-19T07:42:00,hld,9.75
2023-07-19T07:43:00,hld,19.47
2023-07-19T07:44:00,hld,18.50
2023-07-19T07:45:00,hld,18.51
2023-07-19T07:46:00,hld,18.65
2023-07-19T07:47:00,hld,18.70
2023-07-19T07:48:00,hld,18.69
2023-07-19T07:49:00,hld,18.55
2023-07-19T07:50:00,hld,18.73
2023-07-19T07:51:00,hld,14.89
2023-07-19T07:52:00,hld,14.76
2023-07-19T07:53:00,hld,14.93
2023-07-19T07:54:00,hld,15.56
2023-07-19T07:55:00,hld,15.69
2023-07-19T07:56:00,hld,15.80
2023-07-19T07:57:00,hld,15.91
2023-07-19T07:58:00,hld,15.96
2023-07-19T07:59:00,hld,15.31
2023-07-19T08:00:00,hld,15.41
2023-07-19T08:01:00,hld,15.87
2023-07-19T08:02:00,hld,15.93
2023-07-19T08:03:00,hld,15.69
2023-07-19T08:04:00,hld,15.87
2023-07-19T08:05:00,hld,15.80
2023-07-19T08:06:00,hld,15.73
2023-07-19T08:07:00,hld,15.85
2023-07-19T08:08:00,hld,15.82
2023-07-19T08:09:00,hld,15.73
2023-07-19T08:10:00,hld,15.64
2023-07-19T08:11:00,hld,19.17
2023-07-19T08:12:00,hld,19.61
2023-07-19T08:13:00,hld,19.22
2023-07-19T08:14:00,hld,19.46
2023-07-19T08:15:00,hld,19.49
2023-07-19T08:16:00,hld,15.86
2023-07-19T08:17:00,hld,15.72
2023-07-19T08:18:00,hld,15.80
2023-07-19T08:19:00,hld,15.58
2023-07-19T08:20:00,hld,15.64
2023-07-19T08:21:00,hld,15.50
2023-07-19T08:22:00,hld,15.73
2023-07-19T08:23:00,hld,17.13
2023-07-19T08:24:00,hld,15.65
2023-07-19T08:25:00,hld,15.61
2023-07-19T08:26:00,hld,15.55
2023-07-19T08:27:00,hld,15.59
2023-07-19T08:28:00,hld,15.37
2023-07-19T08:29:00,hld,15.68
2023-07-19T08:30:00,hld,15.61
2023-07-19T08:31:00,hld,15.67
2023-07-19T08:32:00,hld,15.54
2023-07-19T08:33:00,hld,15.52
2023-07-19T08:34:00,hld,15.59
2023-07-19T08:35:00,hld,15.52
2023-07-19T08:36:00,hld,15.34
2023-07-19T08:37:00,hld,15.48
2023-07-19T08:38:00,hld,15.50
2023-07-19T08:39:00,hld,15.47
2023-07-19T08:40:00,hld,15.58
2023-07-19T08:41:00,hld,15.30
2023-07-19T08:42:00,hld,15.46
2023-07-19T08:43:00,hld,15.51
2023-07-19T08:44:00,hld,15.28
2023-07-19T08:45:00,hld,15.15
2023-07-19T08:46:00,hld,13.19
2023-07-19T08:47:00,hld,13.46
2023-07-19T08:48:00,hld,14.16
2023-07-19T08:49:00,hld,16.84
2023-07-19T08:50:00,hld,17.28
2023-07-19T08:51:00,hld,17.28
2023-07-19T08:52:00,hld,17.45
2023-07-19T08:53:00,hld,17.53
2023-07-19T08:54:00,hld,17.55
2023-07-19T08:55:00,hld,17.68
2023-07-19T08:56:00,hld,13.75
2023-07-19T08:57:00,hld,13.85
2023-07-19T08:58:00,hld,15.95
2023-07-19T08:59:00,hld,16.09
2023-07-19T09:00:00,hld,15.79
2023-07-19T09:01:00,hld,16.02
2023-07-19T09:02:00,hld,19.97
2023-07-19T09:03:00,hld,20.29
2023-07-19T09:04:00,hld,19.90
2023-07-19T09:05:00,hld,19.94
2023-07-19T09:06:00,hld,19.92
2023-07-19T09:07:00,hld,15.96
2023-07-19T09:08:00,hld,15.88
2023-07-19T09:09:00,hld,15.83
2023-07-19T09:10:00,hld,15.87
2023-07-19T09:11:00,hld,15.97
2023-07-19T09:12:00,hld,17.34
2023-07-19T09:13:00,hld,15.84
2023-07-19T09:14:00,hld,15.79
2023-07-19T09:15:00,hld,15.61
2023-07-19T09:16:00,hld,15.70
2023-07-19T09:17:00,hld,15.74
2023-07-19T09:18:00,hld,15.74
2023-07-19T09:19:00,hld,15.73
2023-07-19T09:20:00,hld,15.62
2023-07-19T09:21:00,hld,15.75
2023-07-19T09:22:00,hld,15.74
2023-07-19T09:23:00,hld,15.78
2023-07-19T09:24:00,hld,15.41
2023-07-19T09:25:00,hld,15.30
2023-07-19T09:26:00,hld,15.26
2023-07-19T09:27:00,hld,15.95
2023-07-19T09:28:00,hld,15.67
2023-07-19T09:29:00,hld,15.85
2023-07-19T09:30:00,hld,15.78
2023-07-19T09:31:00,hld,15.80
2023-07-19T09:32:00,hld,15.78
2023-07-19T09:33:00,hld,15.75
2023-07-19T09:34:00,hld,15.79
2023-07-19T09:35:00,hld,15.67
2023-07-19T09:36:00,hld,15.80
2023-07-19T09:37:00,hld,15.71
2023-07-19T09:38:00,hld,15.76
2023-07-19T09:39:00,hld,15.84
2023-07-19T09:40:00,hld,15.97
2023-07-19T09:41:00,hld,15.85
2023-07-19T09:42:00,hld,15.91
2023-07-19T09:43:00,hld,15.90
2023-07-19T09:44:00,hld,15.72
2023-07-19T09:45:00,hld,15.46
2023-07-19T09:46:00,hld,15.89
2023-07-19T09:47:00,hld,15.66
2023-07-19T09:48:00,hld,15.94
2023-07-19T09:49:00,hld,15.82
2023-07-19T09:50:00,hld,15.89
2023-07-19T09:51:00,hld,15.60
2023-07-19T09:52:00,hld,15.86
2023-07-19T09:53:00,hld,15.92
2023-07-19T09:54:00,hld,9.67
2023-07-19T09:55:00,hld,9.71
2023-07-19T09:56:00,hld,9.71
2023-07-19T09:57:00,hld,9.73
2023-07-19T09:58:00,hld,9.76
2023-07-19T09:59:00,hld,9.97
2023-07-19T10:00:00,hld,12.24
2023-07-19T10:01:00,hld,11.97
2023-07-19T10:02:00,hld,13.69
2023-07-19T10:03:00,hld,12.27
2023-07-19T10:04:00,hld,12.96
2023-07-19T10:05:00,hld,12.71
2023-07-19T10:06:00,hld,12.94
2023-07-19T10:07:00,hld,13.55
2023-07-19T10:08:00,hld,12.93
2023-07-19T10:09:00,hld,12.68
2023-07-19T10:10:00,hld,12.91
2023-07-19T10:11:00,hld,12.85
2023-07-19T10:12:00,hld,12.88
2023-07-19T10:13:00,hld,13.26
2023-07-19T10:14:00,hld,12.78
2023-07-19T10:15:00,hld,12.75
2023-07-19T10:16:00,hld,12.83
2023-07-19T10:17:00,hld,12.70
2023-07-19T10:18:00,hld,10.59
2023-07-19T10:19:00,hld,10.59
2023-07-19T10:20:00,hld,10.56
2023-07-19T10:21:00,hld,10.56
2023-07-19T10:22:00,hld,10.53
2023-07-19T10:23:00,hld,10.54
2023-07-19T10:24:00,hld,7.94
2023-07-19T10:25:00,hld,10.09
2023-07-19T10:26:00,hld,10.03
2023-07-19T10:27:00,hld,10.06
2023-07-19T10:28:00,hld,9.85
2023-07-19T10:29:00,hld,10.03
2023-07-19T10:30:00,hld,8.29
2023-07-19T10:31:00,hld,7.85
2023-07-19T10:32:00,hld,8.31
2023-07-19T10:33:00,hld,8.23
2023-07-19T10:34:00,hld,8.32
2023-07-19T10:35:00,hld,8.36
2023-07-19T10:36:00,hld,8.37
2023-07-19T10:37:00,hld,8.33
2023-07-19T10:38:00,hld,7.79
2023-07-19T10:39:00,hld,7.75
2023-07-19T10:40:00,hld,7.90
2023-07-19T10:41:00,hld,7.84
2023-07-19T10:42:00,hld,7.91
2023-07-19T10:43:00,hld,7.89
2023-07-19T10:44:00,hld,7.89
2023-07-19T10:45:00,hld,7.93
2023-07-19T10:46:00,hld,7.90
2023-07-19T10:47:00,hld,7.86
2023-07-19T10:48:00,hld,7.84
2023-07-19T10:49:00,hld,7.89
2023-07-19T10:50:00,hld,8.02
2023-07-19T10:51:00,hld,7.77
2023-07-19T10:52:00,hld,9.26
2023-07-19T10:53:00,hld,7.79
2023-07-19T10:54:00,hld,7.86
2023-07-19T10:55:00,hld,7.81
2023-07-19T10:56:00,hld,7.83
2023-07-19T10:57:00,hld,7.82
2023-07-19T10:58:00,hld,7.82
2023-07-19T10:59:00,hld,7.70
2023-07-19T11:00:00,hld,7.74
2023-07-19T11:01:00,hld,7.70
2023-07-19T11:02:00,hld,9.50
2023-07-19T11:03:00,hld,16.82
2023-07-19T11:04:00,hld,20.25
2023-07-19T11:05:00,hld,20.33
2023-07-19T11:06:00,hld,20.45
2023-07-19T11:07:00,hld,20.49
2023-07-19T11:08:00,hld,20.56
2023-07-19T11:09:00,hld,20.57
2023-07-19T11:10:00,hld,20.75
2023-07-19T11:11:00,hld,20.69
2023-07-19T11:12:00,hld,20.80
2023-07-19T11:13:00,hld,20.71
2023-07-19T11:14:00,hld,20.86
2023-07-19T11:15:00,hld,16.86
2023-07-19T11:16:00,hld,16.89
2023-07-19T11:17:00,hld,16.62
2023-07-19T11:18:00,hld,17.19
2023-07-19T11:19:00,hld,16.98
2023-07-19T11:20:00,hld,10.59
2023-07-19T11:21:00,hld,10.57
2023-07-19T11:22:00,hld,10.42
2023-07-19T11:23:00,hld,10.40
2023-07-19T11:24:00,hld,10.39
2023-07-19T11:25:00,hld,19.03
2023-07-19T11:26:00,hld,18.69
2023-07-19T11:27:00,hld,18.69
2023-07-19T11:28:00,hld,18.49
2023-07-19T11:29:00,hld,18.45
2023-07-19T11:30:00,hld,11.55
2023-07-19T11:31:00,hld,11.41
2023-07-19T11:32:00,hld,11.42
2023-07-19T11:33:00,hld,11.42
2023-07-19T11:34:00,hld,11.42
2023-07-19T11:35:00,hld,16.65
2023-07-19T11:36:00,hld,16.72
2023-07-19T11:37:00,hld,15.55
2023-07-19T11:38:00,hld,15.60
2023-07-19T11:39:00,hld,15.58
2023-07-19T11:40:00,hld,15.65
2023-07-19T11:41:00,hld,15.43
2023-07-19T11:42:00,hld,16.80
2023-07-19T11:43:00,hld,15.37
2023-07-19T11:44:00,hld,15.23
2023-07-19T11:45:00,hld,15.41
2023-07-19T11:46:00,hld,9.01
2023-07-19T11:47:00,hld,8.96
2023-07-19T11:48:00,hld,9.00
2023-07-19T11:49:00,hld,8.33
2023-07-19T11:50:00,hld,8.64
2023-07-19T11:51:00,hld,8.86
2023-07-19T11:52:00,hld,8.85
2023-07-19T11:53:00,hld,9.02
2023-07-19T11:54:00,hld,9.01
2023-07-19T11:55:00,hld,9.02
2023-07-19T11:56:00,hld,9.00
2023-07-19T11:57:00,hld,8.99
2023-07-19T11:58:00,hld,8.97
2023-07-19T11:59:00,hld,8.96
2023-07-19T12:00:00,hld,8.85
2023-07-19T12:01:00,hld,8.89
2023-07-19T12:02:00,hld,8.90
2023-07-19T12:03:00,hld,8.85
2023-07-19T12:04:00,hld,8.84
2023-07-19T12:05:00,hld,8.86
2023-07-19T12:06:00,hld,8.82
2023-07-19T12:07:00,hld,8.80
2023-07-19T12:08:00,hld,9.01
2023-07-19T12:09:00,hld,8.71
2023-07-19T12:10:00,hld,8.77
2023-07-19T12:11:00,hld,8.71
2023-07-19T12:12:00,hld,8.67
2023-07-19T12:13:00,hld,8.57
2023-07-19T12:14:00,hld,8.55
2023-07-19T12:15:00,hld,8.56
2023-07-19T12:16:00,hld,8.57
2023-07-19T12:17:00,hld,8.51
2023-07-19T12:18:00,hld,8.57
2023-07-19T12:19:00,hld,8.56
2023-07-19T12:20:00,hld,8.55
2023-07-19T12:21:00,hld,8.53
2023-07-19T12:22:00,hld,8.45
2023-07-19T12:23:00,hld,8.77
2023-07-19T12:24:00,hld,8.58
2023-07-19T12:25:00,hld,8.31
2023-07-19T12:26:00,hld,8.36
2023-07-19T12:27:00,hld,8.37
2023-07-19T12:28:00,hld,8.71
2023-07-19T12:29:00,hld,8.83
2023-07-19T12:30:00,hld,9.68
2023-07-19T12:31:00,hld,9.49
2023-07-19T12:32:00,hld,11.08
2023-07-19T12:33:00,hld,7.03
2023-07-19T12:34:00,hld,6.98
2023-07-19T12:35:00,hld,6.80
2023-07-19T12:36:00,hld,6.78
2023-07-19T12:37:00,hld,6.77
2023-07-19T12:38:00,hld,6.82
2023-07-19T12:39:00,hld,6.88
2023-07-19T12:40:00,hld,6.79
2023-07-19T12:41:00,hld,6.76
2023-07-19T12:42:00,hld,6.65
2023-07-19T12:43:00,hld,6.76
2023-07-19T12:44:00,hld,6.74
2023-07-19T12:45:00,hld,6.81
2023-07-19T12:46:00,hld,6.60
2023-07-19T12:47:00,hld,6.63
2023-07-19T12:48:00,hld,7.78
2023-07-19T12:49:00,hld,6.22
2023-07-19T12:50:00,hld,6.23
2023-07-19T12:51:00,hld,6.21
2023-07-19T12:52:00,hld,6.19
2023-07-19T12:53:00,hld,6.20
2023-07-19T12:54:00,hld,6.85
2023-07-19T12:55:00,hld,6.82
2023-07-19T12:56:00,hld,6.83
2023-07-19T12:57:00,hld,6.80
2023-07-19T12:58:00,hld,7.17
2023-07-19T12:59:00,hld,6.87
2023-07-19T13:00:00,hld,6.79
2023-07-19T13:01:00,hld,6.78
2023-07-19T13:02:00,hld,6.80
2023-07-19T13:03:00,hld,6.80
2023-07-19T13:04:00,hld,6.69
2023-07-19T13:05:00,hld,6.69
2023-07-19T13:06:00,hld,6.63
2023-07-19T13:07:00,hld,7.24
2023-07-19T13:08:00,hld,6.61
2023-07-19T13:09:00,hld,6.57
2023-07-19T13:10:00,hld,6.69
2023-07-19T13:11:00,hld,6.79
2023-07-19T13:12:00,hld,6.66
2023-07-19T13:13:00,hld,6.53
2023-07-19T13:14:00,hld,6.45
2023-07-19T13:15:00,hld,6.90
2023-07-19T13:16:00,hld,6.93
2023-07-19T13:17:00,hld,6.84
2023-07-19T13:18:00,hld,7.02
2023-07-19T13:19:00,hld,6.90
2023-07-19T13:20:00,hld,6.89
2023-07-19T13:21:00,hld,6.90
2023-07-19T13:22:00,hld,8.49
2023-07-19T13:23:00,hld,7.03
2023-07-19T13:24:00,hld,6.98
2023-07-19T13:25:00,hld,6.95
2023-07-19T13:26:00,hld,6.83
2023-07-19T13:27:00,hld,6.91
2023-07-19T13:28:00,hld,6.87
2023-07-19T13:29:00,hld,6.69
2023-07-19T13:30:00,hld,6.78
2023-07-19T13:31:00,hld,6.70
2023-07-19T13:32:00,hld,6.82
2023-07-19T13:33:00,hld,6.79
2023-07-19T13:34:00,hld,6.84
2023-07-19T13:35:00,hld,6.81
2023-07-19T13:36:00,hld,6.79
2023-07-19T13:37:00,hld,6.81
2023-07-19T13:38:00,hld,6.79